Wind_Speed
52 52 52 52 52 52 52 52 52 52 52 53 53 53 54 54 54 55 55 55 55 56 56 56 56 56 56 56 56 56 55 55 55 55 54 54 54 53 53 52 52 52 51 51 51 50 50 49 49 48 48 47 47 47 46 46 45 45 45 45 44 44 44 44 44 43 43 43 42 42 41 41 40 40 40 39 39 38 38 38 37 37 37 36 36 36
52 52 53 53 53 53 53 53 53 53 53 54 54 54 54 55 55 55 55 55 55 55 55 56 55 55 55 55 54 54 53 53 52 52 51 51 50 50 50 49 49 49 48 48 48 47 47 47 46 46 45 45 45 44 44 44 44 43 43 43 43 43 43 43 42 42 42 42 41 41 41 40 40 40 39 39 39 39 38 38 38 37 37 37 37 36
52 52 53 53 53 53 53 53 54 54 54 55 55 55 55 55 55 55 55 55 55 55 55 55 54 54 53 53 52 51 51 50 49 49 48 47 47 46 46 46 46 46 46 45 45 45 45 44 44 44 43 43 43 43 42 42 42 42 42 42 42 42 42 42 42 42 41 41 41 41 40 40 40 39 39 39 39 39 38 38 38 38 38 38 37 37
52 53 53 54 54 54 54 54 54 55 55 55 56 56 56 56 56 56 56 55 55 55 54 54 53 52 52 51 49 48 47 47 46 45 44 44 43 43 43 43 43 43 43 43 43 43 43 42 42 42 42 42 41 41 41 41 41 41 41 41 41 41 41 41 41 41 41 41 41 41 40 40 40 40 39 39 39 39 39 39 39 39 39 39 38 38
52 53 54 54 54 54 55 55 55 55 56 56 56 56 56 56 56 56 56 56 55 54 53 52 51 50 49 48 47 45 44 43 42 42 41 40 40 40 40 40 40 40 40 40 41 41 41 41 41 41 41 41 41 41 41 41 41 41 41 41 41 41 41 41 41 41 41 41 41 41 41 41 40 40 40 39 39 39 39 39 39 39 39 39 39 39
53 53 54 54 55 55 55 55 56 56 56 56 56 56 56 56 56 56 56 55 54 53 52 50 49 48 46 45 43 42 41 40 39 38 38 37 37 37 37 37 38 38 38 38 39 39 39 39 39 40 40 40 40 40 41 41 41 41 41 41 41 41 42 42 42 42 42 42 42 42 42 41 41 41 40 40 40 40 40 40 40 40 40 40 40 40
53 54 54 55 55 55 55 56 56 56 56 56 56 56 56 56 56 55 55 54 53 51 50 48 47 45 43 41 40 39 37 36 36 35 35 34 34 34 35 35 36 36 36 36 37 37 37 38 38 39 39 40 40 40 41 41 41 41 42 42 42 42 42 42 42 42 42 42 42 42 42 42 41 41 41 41 41 41 41 41 41 41 41 40 40 40
53 54 54 55 55 56 56 56 56 56 56 56 56 56 56 55 55 54 53 52 51 49 48 46 45 42 40 38 37 36 35 34 33 33 33 32 32 32 33 33 34 34 35 35 35 36 36 37 37 38 38 39 40 40 41 41 41 42 42 42 42 43 43 43 43 43 43 43 43 42 42 42 42 41 42 42 42 42 42 42 42 42 41 41 41 41
53 54 55 55 55 55 56 56 56 55 55 55 55 55 54 54 54 53 52 50 48 47 45 44 42 40 38 35 34 34 33 33 32 31 31 31 31 31 32 32 33 33 33 34 34 34 35 36 36 37 38 39 39 40 40 41 41 42 42 42 43 43 43 43 43 43 43 43 43 42 42 42 42 42 42 42 42 42 42 42 42 42 42 42 42 42
54 54 55 55 55 55 55 55 55 55 54 54 54 53 53 53 52 52 50 48 46 45 43 42 40 38 37 34 33 32 31 32 31 31 30 30 31 31 31 31 32 32 32 32 33 33 34 35 36 36 37 38 39 39 40 41 41 42 42 42 42 42 43 43 43 43 43 42 42 42 42 42 42 42 42 42 42 42 42 42 42 42 42 42 42 42
54 55 55 55 55 55 55 54 54 54 53 53 52 52 52 51 50 49 49 47 45 43 42 40 38 36 35 34 33 31 30 30 31 30 30 30 30 30 31 31 31 31 31 31 31 32 32 33 35 36 36 37 38 39 39 40 41 41 41 41 42 42 42 42 42 42 42 42 42 42 42 42 42 42 42 42 42 41 41 42 42 42 42 42 42 42
54 55 55 55 55 54 54 54 53 53 52 51 51 51 50 49 48 47 46 46 44 42 40 39 37 35 34 33 33 32 31 30 30 30 30 30 30 30 30 30 30 30 30 30 31 31 32 33 34 35 35 36 37 38 38 39 40 40 40 40 41 41 41 41 41 41 41 41 41 41 41 41 41 42 42 41 41 41 41 41 41 41 41 41 41 41
55 55 55 54 54 53 53 52 52 51 51 50 49 49 48 48 47 45 44 43 42 41 39 38 37 35 33 32 32 32 32 31 31 31 31 31 30 30 30 31 30 30 30 30 30 31 31 32 33 34 34 35 35 36 37 37 38 38 39 39 39 40 40 40 40 40 40 41 41 41 41 41 41 41 41 41 41 41 41 41 41 41 41 40 40 40
54 54 54 54 53 52 52 51 50 50 49 48 48 47 46 45 44 43 42 42 41 40 39 38 37 35 34 32 31 31 31 31 31 31 31 31 31 30 30 31 31 30 30 30 31 31 31 32 33 33 33 33 34 34 35 35 36 37 37 37 38 38 38 39 39 39 39 40 40 40 40 40 41 41 41 41 41 41 41 41 41 41 40 40 39 38
54 53 53 52 52 51 50 50 49 48 47 47 46 45 44 43 43 42 41 41 41 40 39 38 37 36 34 32 31 31 31 32 32 32 31 31 31 30 30 31 32 31 30 31 31 31 32 32 33 33 32 32 32 32 33 33 34 35 35 36 36 37 37 37 38 38 38 39 39 39 39 40 40 40 41 41 41 41 41 41 41 40 40 39 38 37
53 52 52 51 50 50 49 48 47 46 46 45 44 43 42 42 42 41 40 40 40 39 39 38 37 36 34 32 30 29 30 32 33 32 32 31 31 30 30 31 32 32 31 31 31 32 32 32 32 32 32 31 31 31 31 31 32 33 33 34 35 35 36 36 37 37 37 38 38 39 39 39 40 40 40 40 40 40 40 40 40 40 39 38 37 36
52 51 50 50 49 48 48 47 45 44 44 43 43 42 41 40 40 40 40 40 39 39 39 38 37 37 35 33 30 28 28 30 32 33 32 32 31 30 30 31 32 33 32 31 32 32 33 33 33 32 31 30 30 29 29 30 30 31 32 33 34 34 35 36 36 37 37 38 38 38 39 39 39 40 40 40 40 40 40 40 40 39 38 37 36 35
50 49 49 48 48 47 46 45 44 43 42 42 41 41 40 40 40 40 40 39 39 39 38 38 37 36 35 33 31 29 28 30 32 33 33 33 32 31 31 32 33 34 33 32 32 33 33 33 33 32 31 30 29 28 28 29 29 30 31 32 33 34 35 35 36 36 37 37 38 38 38 39 39 39 39 40 40 40 40 40 40 39 38 37 36 35
48 47 47 46 46 46 44 43 42 41 41 40 40 40 40 40 39 39 39 39 39 38 38 37 36 35 34 32 31 30 29 30 32 34 34 34 33 32 32 33 34 35 34 34 33 33 34 33 33 32 30 29 28 28 27 28 29 29 31 32 33 34 34 35 36 36 37 37 37 38 38 38 39 39 39 39 40 40 40 40 40 40 39 38 36 35
47 46 45 44 44 44 43 41 40 39 39 39 39 39 39 39 39 39 39 39 38 38 37 36 36 35 34 32 31 30 30 32 33 35 36 36 35 34 34 35 36 36 36 35 34 34 34 33 32 31 29 28 27 27 27 27 28 29 30 31 32 33 34 34 35 35 36 36 37 37 37 38 38 39 39 39 40 40 40 40 40 40 39 38 37 35
45 44 43 43 42 41 40 39 38 37 37 38 38 38 39 39 39 39 38 38 38 37 37 36 35 35 34 33 32 31 31 33 35 37 38 37 37 36 36 37 38 38 37 36 35 34 34 33 32 30 29 27 26 26 26 27 27 28 29 30 31 31 32 33 34 34 35 35 36 36 37 37 38 38 39 40 40 41 41 41 41 41 40 39 38 36
43 43 42 41 40 39 38 37 37 36 36 36 37 38 38 39 39 39 38 38 37 37 37 37 36 35 35 34 33 33 33 34 36 38 39 39 39 38 37 38 39 39 38 37 36 35 34 33 32 30 28 27 26 25 25 26 26 27 27 28 29 29 30 31 32 33 33 34 35 35 36 37 38 38 39 40 40 41 41 42 42 41 41 40 39 38
41 40 40 38 37 37 36 35 35 35 35 35 36 37 38 38 38 39 38 38 38 38 38 38 37 36 36 35 34 34 33 34 36 38 39 40 40 39 38 39 39 39 39 37 36 35 35 33 32 30 28 27 25 25 24 24 24 25 25 26 27 27 28 29 30 31 32 33 34 35 35 36 37 38 39 40 41 41 42 42 42 42 41 41 40 39
39 38 37 36 35 35 34 34 34 34 35 36 36 37 38 38 38 38 38 38 38 38 39 38 38 37 36 35 35 34 33 34 35 37 39 40 40 39 39 39 40 40 39 38 37 36 36 34 33 31 29 27 25 24 23 23 23 23 24 24 25 26 27 28 28 30 31 32 33 34 35 36 37 39 40 40 41 42 42 42 42 42 42 41 41 40
37 36 35 34 33 33 33 33 34 34 35 35 36 37 37 37 37 37 37 36 37 37 38 38 38 37 36 36 35 34 33 33 34 36 38 39 40 39 38 39 39 40 39 38 37 37 36 35 33 31 29 27 25 24 23 22 22 22 23 23 24 25 26 27 28 29 30 31 32 34 35 36 37 39 40 40 41 42 42 42 42 42 42 42 41 41
35 34 33 32 32 32 32 33 33 34 34 35 35 36 36 36 36 35 34 34 35 35 36 36 36 36 36 36 36 35 34 34 34 35 37 39 40 39 38 38 39 40 40 39 38 37 37 36 34 32 30 28 26 24 23 22 21 21 22 22 23 24 25 26 27 28 30 31 32 33 34 36 37 38 39 40 41 41 42 42 42 42 41 41 41 40
33 32 31 31 31 32 32 33 33 34 34 34 35 35 35 35 35 35 34 34 34 35 36 36 37 37 37 37 37 36 35 34 34 35 37 38 39 39 38 38 39 40 40 39 39 38 38 37 35 33 31 29 27 25 23 22 21 21 21 22 23 24 25 26 27 28 30 31 32 33 34 35 37 38 38 39 40 40 41 41 41 41 41 41 40 40
30 30 30 30 30 31 32 32 33 33 33 33 34 34 34 35 35 35 34 35 35 36 36 37 37 38 38 38 38 36 35 34 34 35 36 38 39 39 39 39 39 40 40 40 39 38 38 37 35 34 32 30 28 26 24 23 22 21 21 22 23 24 25 26 27 29 30 31 31 32 34 35 36 37 37 38 38 39 39 39 39 40 40 40 40 39
29 28 28 29 30 31 31 32 32 32 32 32 32 33 33 33 34 34 35 35 36 36 37 37 38 39 39 39 39 37 35 34 34 35 36 38 39 39 39 39 39 40 41 41 40 39 38 37 36 34 33 31 29 27 26 24 23 22 22 22 23 24 25 26 27 28 29 30 31 32 33 34 35 35 36 37 37 37 38 38 38 38 39 39 39 38
27 27 27 28 29 30 30 31 31 30 30 30 31 31 32 32 33 34 34 35 36 36 37 38 38 38 39 39 39 38 36 34 34 35 37 38 39 39 39 39 40 40 41 42 42 41 39 37 36 35 34 33 31 29 27 26 24 24 23 23 23 24 25 26 27 28 29 30 31 31 32 33 33 34 35 35 35 36 36 36 36 37 38 38 38 38
25 26 26 27 28 29 29 29 29 29 29 29 29 30 31 32 32 33 34 35 35 36 37 37 37 38 38 39 39 38 37 34 34 35 37 38 39 40 40 40 40 40 40 42 43 43 42 39 37 36 35 34 33 31 29 28 26 26 25 25 25 24 25 26 27 28 29 30 30 31 31 32 32 32 33 33 34 34 34 34 35 36 36 37 37 36
25 25 26 27 27 27 27 27 27 27 28 28 28 29 30 31 32 32 33 34 35 35 36 36 37 37 37 37 38 38 36 35 34 35 37 39 40 40 40 41 41 41 40 41 42 43 44 42 39 37 36 35 34 32 31 30 29 28 28 27 27 26 26 27 28 28 29 30 30 30 30 30 30 31 31 32 32 32 33 33 34 34 35 35 35 35
25 25 26 26 26 26 26 26 26 26 27 27 28 29 29 30 31 32 33 33 34 34 35 35 36 36 36 36 37 36 36 35 35 36 37 39 40 41 41 41 41 41 40 40 41 42 43 43 42 40 39 37 36 34 33 32 31 30 30 30 29 29 28 28 29 29 29 29 29 29 29 28 29 29 29 30 31 31 31 32 32 33 34 34 34 34
25 25 25 25 25 25 25 25 25 26 26 27 28 29 29 30 31 31 32 32 32 33 33 34 34 35 36 36 36 36 35 35 35 36 38 39 41 41 41 41 41 41 41 41 41 41 42 42 42 42 41 39 37 36 35 34 33 33 32 32 32 31 30 30 30 29 29 29 29 28 27 27 27 27 28 28 29 30 30 31 31 32 32 33 33 33
25 25 25 24 24 24 24 24 25 25 26 27 28 29 29 30 30 30 30 31 31 31 32 32 33 34 35 36 37 37 36 35 35 36 38 39 40 41 41 41 40 40 40 41 41 41 42 42 42 42 42 41 40 38 37 36 36 35 35 34 33 33 32 31 30 29 29 28 28 27 26 26 26 26 26 27 28 29 29 30 30 31 31 32 32 33
24 24 23 23 23 23 23 24 25 25 26 27 28 28 29 29 29 29 29 29 29 30 30 31 32 33 34 35 36 37 37 36 36 36 37 38 39 40 40 40 40 39 40 40 40 41 41 42 42 42 42 42 42 41 39 38 38 37 36 35 34 33 31 30 29 29 28 27 26 25 25 25 25 25 25 26 27 27 28 28 29 29 30 30 31 32
23 22 22 22 23 23 23 24 24 25 26 27 27 27 28 28 28 28 28 28 28 29 30 31 32 33 34 35 36 37 37 37 36 36 37 37 38 39 39 39 39 38 38 39 40 40 41 42 42 42 43 43 43 43 42 41 39 38 37 35 33 31 29 28 27 26 26 25 25 24 24 24 24 24 24 25 25 26 26 27 27 27 28 29 30 31
21 21 21 22 22 22 23 24 24 25 26 26 26 26 26 26 26 26 27 27 28 29 30 31 32 33 33 34 35 36 37 37 36 36 36 36 37 38 38 38 38 37 37 37 38 39 40 41 42 43 43 43 43 43 42 41 40 38 35 33 31 28 26 25 24 24 24 24 23 23 23 23 24 24 24 24 25 25 25 25 25 26 27 28 29 30
20 20 20 21 22 22 23 24 24 24 25 25 25 25 25 25 25 25 26 27 28 29 30 31 32 33 33 34 34 35 35 36 35 35 35 35 36 36 37 37 37 37 36 36 37 38 39 41 42 43 43 43 43 42 41 39 38 36 33 31 28 25 24 22 22 22 22 23 23 23 23 24 24 24 25 25 25 25 24 24 24 25 26 27 28 29
19 19 20 21 21 22 23 23 24 24 24 25 25 25 25 25 25 25 25 26 27 29 30 31 32 32 33 33 34 34 34 34 34 34 34 34 34 35 35 36 36 36 36 36 37 37 38 39 40 41 41 42 42 41 39 36 34 32 31 30 28 25 22 21 21 21 22 23 24 24 25 25 25 25 25 25 25 25 25 25 25 25 26 27 28 28
18 19 19 20 21 22 22 23 23 24 24 24 24 24 24 24 25 25 26 26 27 29 30 31 32 32 33 33 33 33 34 33 33 33 32 32 32 33 34 34 35 35 36 36 36 37 37 38 38 39 39 39 39 38 36 33 31 29 29 30 29 26 24 22 22 22 23 24 25 25 26 26 26 26 26 26 25 25 25 25 25 25 25 26 27 28
18 18 19 20 20 21 22 22 23 23 23 23 23 23 24 25 25 26 26 27 28 29 30 31 32 33 33 33 32 32 32 32 32 31 30 30 30 31 31 32 33 34 35 36 36 36 36 36 36 37 37 37 37 36 34 32 30 28 29 30 30 29 27 25 24 24 26 26 26 26 27 27 27 27 27 26 26 25 25 25 25 26 26 26 27 28
17 18 19 19 20 20 21 21 22 22 22 23 23 23 24 25 26 27 27 28 29 30 31 32 33 34 34 34 33 32 31 30 29 29 28 28 28 29 29 30 31 32 33 34 35 35 35 34 35 35 35 35 36 35 35 33 31 30 29 30 31 32 31 29 27 26 27 27 27 27 27 28 28 28 27 27 26 26 25 25 26 26 26 26 27 28
17 17 18 19 19 20 20 21 21 21 22 22 22 23 24 25 26 27 28 29 29 30 32 33 34 34 34 35 34 33 30 28 27 26 26 26 26 27 28 28 29 30 31 32 34 34 34 34 34 34 34 35 35 35 35 34 33 32 30 30 30 31 32 31 30 29 28 28 27 27 27 28 28 28 28 27 26 26 26 26 26 25 25 26 26 27
17 17 18 18 19 19 19 20 20 21 21 21 22 22 23 24 26 27 28 29 30 31 32 33 34 35 35 35 34 33 31 28 26 24 24 24 24 25 26 27 28 29 30 31 32 33 34 34 34 34 34 34 34 34 34 34 33 32 31 30 29 30 30 29 29 29 29 28 28 27 27 27 28 28 28 27 27 26 26 25 25 24 24 24 24 25
17 17 17 18 18 19 19 20 20 20 20 20 21 22 23 24 25 27 28 30 31 32 32 33 34 34 35 35 34 33 31 29 26 24 23 23 23 24 25 26 27 28 29 30 31 32 33 33 34 34 34 34 33 32 32 32 32 31 30 29 28 28 28 27 27 27 28 28 28 27 27 27 28 28 28 27 26 25 24 24 23 22 21 21 21 22
16 17 17 17 18 18 19 19 20 19 19 20 20 21 23 24 25 27 28 30 31 32 32 33 33 34 34 34 34 33 32 30 28 26 24 23 23 24 24 25 27 28 29 30 31 31 32 32 33 33 33 33 33 31 29 29 29 29 29 28 28 27 27 26 25 25 26 27 27 27 27 27 27 27 27 26 25 23 22 21 20 19 19 19 19 19
16 17 17 17 18 18 18 19 19 19 19 20 20 21 23 24 26 27 29 30 31 32 32 33 33 33 33 33 32 32 31 30 29 27 26 26 25 25 25 26 27 28 28 29 30 30 31 31 31 31 32 32 32 31 29 27 27 27 27 27 27 27 27 26 25 25 26 27 27 27 27 27 28 27 27 25 23 21 20 19 18 18 19 19 19 19
16 17 17 17 18 18 18 18 19 19 20 20 20 21 22 24 26 27 29 30 31 32 32 33 33 33 32 32 31 31 30 29 29 28 28 28 27 27 27 28 28 29 29 29 30 30 30 30 30 30 30 32 32 32 31 29 28 27 27 27 28 28 28 28 27 27 28 28 28 28 28 28 28 28 28 27 25 22 20 20 20 20 20 21 21 21
16 17 17 17 18 18 18 19 19 20 21 21 21 22 23 24 25 27 28 30 31 32 32 32 32 32 32 32 31 30 30 29 29 28 28 28 29 29 29 29 30 30 31 31 31 31 31 31 30 29 30 31 33 34 34 33 31 30 29 29 29 30 31 30 30 30 30 30 30 30 30 30 30 30 30 30 28 25 23 22 21 22 22 22 22 22
16 17 17 18 18 19 19 20 20 21 21 22 22 23 23 24 26 27 28 30 31 31 31 32 32 32 32 32 31 30 30 29 29 29 29 29 29 30 30 30 31 32 33 33 33 33 33 33 32 31 30 31 32 34 36 36 35 34 33 32 32 32 32 33 33 32 33 33 32 32 32 32 32 32 32 32 31 29 26 24 23 23 23 23 23 23
Wind_Direction
304 304 304 304 304 304 304 304 303 303 303 302 302 302 302 302 303 303 303 302 302 302 301 301 301 301 300 300 299 299 299 298 298 297 297 296 295 294 293 292 291 291 290 289 289 289 289 289 290 290 290 290 290 289 289 288 288 288 288 287 287 286 286 285 285 284 284 283 283 282 282 282 281 280 280 279 278 278 277 276 276 275 274 273 272 270
304 304 304 304 304 304 304 304 304 303 303 303 303 303 303 303 303 303 303 302 302 302 301 301 301 300 300 299 299 299 298 298 297 297 296 295 294 293 292 291 290 290 290 289 289 289 290 290 290 290 290 290 289 289 289 289 288 288 288 287 287 286 286 285 285 284 284 283 283 282 282 282 281 281 280 280 279 279 278 278 277 276 275 273 272 271
304 304 304 304 304 304 304 304 304 304 303 304 304 304 304 304 303 303 303 302 302 301 301 301 300 300 300 299 299 298 298 297 297 296 295 294 293 292 291 291 290 290 290 290 290 290 290 290 290 290 290 290 289 289 289 289 289 288 288 287 287 286 286 285 285 284 284 283 283 282 282 281 281 280 280 280 279 279 278 278 277 276 275 274 272 271
304 304 304 304 304 304 304 304 304 304 304 304 304 304 304 304 304 303 303 302 302 301 301 301 300 300 300 299 299 298 298 297 296 295 294 293 292 292 291 290 290 290 290 290 290 290 291 291 291 291 290 290 290 290 290 289 289 288 288 287 286 286 285 285 284 284 283 283 282 282 281 280 280 280 279 279 279 278 277 277 276 275 274 273 272 271
304 304 304 304 304 304 304 304 304 304 304 304 304 305 304 304 304 303 302 302 302 301 301 301 301 300 300 299 299 298 298 297 296 295 294 293 292 292 291 291 290 290 290 291 291 291 291 291 292 292 292 291 291 291 291 290 289 289 288 287 286 286 285 284 284 283 283 282 282 281 281 280 280 279 279 279 278 277 277 276 275 274 273 273 272 271
304 304 304 304 304 304 304 304 304 304 304 305 305 305 304 304 303 303 302 302 302 302 301 301 301 300 300 300 299 299 298 297 296 295 294 293 293 292 291 291 291 291 291 291 292 292 292 292 292 292 292 292 292 292 291 291 290 289 288 287 286 286 285 285 284 283 283 282 282 282 281 281 281 280 280 279 278 278 277 276 275 274 274 273 273 272
304 304 304 304 304 304 304 304 305 305 305 305 305 304 304 303 303 303 302 302 302 302 302 301 301 301 301 301 300 299 298 297 296 295 295 294 293 292 292 291 291 291 291 291 292 292 292 293 293 293 293 293 292 292 291 291 290 289 288 287 287 286 286 285 284 284 283 283 282 282 282 282 281 281 281 280 279 279 278 277 276 276 275 274 274 273
304 304 304 304 304 304 304 304 305 305 305 305 304 304 304 303 303 302 302 303 303 303 303 302 302 302 302 302 302 301 299 298 297 296 295 294 293 292 291 290 290 290 291 291 292 292 293 293 293 293 293 293 292 292 291 290 290 289 288 288 287 287 286 285 285 284 284 283 283 283 282 282 282 282 281 281 280 280 279 279 278 277 276 276 275 274
304 304 303 303 303 304 304 305 305 305 305 305 304 304 303 303 303 302 303 303 304 304 304 304 304 304 304 304 303 302 301 300 298 297 296 295 293 291 290 290 290 290 291 292 293 293 294 294 293 293 293 292 292 291 290 290 289 289 288 287 287 286 286 285 285 284 284 283 283 283 283 283 282 282 282 281 281 280 280 279 279 278 277 277 276 275
303 303 303 303 304 304 305 305 305 305 305 305 304 304 303 303 303 303 304 304 304 305 305 305 305 305 305 304 304 302 301 300 299 298 296 295 293 292 291 290 290 291 292 292 293 293 294 294 293 293 292 292 291 290 289 289 288 287 287 286 286 285 285 284 284 283 283 283 283 283 283 283 282 282 282 281 281 281 280 280 279 278 278 277 276 276
303 303 303 304 304 305 305 305 305 305 305 305 304 304 304 304 305 305 305 306 306 306 306 306 306 306 306 305 304 303 302 300 299 297 296 294 292 291 290 290 290 291 291 292 292 293 293 293 292 292 291 290 289 288 288 287 286 286 285 285 284 284 283 283 283 283 282 282 282 282 282 282 282 282 282 281 281 281 280 280 279 279 278 277 277 276
303 303 304 304 305 305 306 306 305 305 305 305 305 305 305 305 306 307 307 307 307 307 306 306 307 307 307 306 305 304 302 300 298 296 295 292 291 289 289 288 288 289 290 290 291 291 292 292 291 291 290 289 288 287 286 285 285 284 283 283 282 282 282 282 282 282 282 282 282 282 282 282 282 282 281 281 281 281 280 280 279 279 278 278 277 277
303 304 305 305 306 306 306 306 305 305 305 306 306 306 306 306 307 308 308 307 307 307 307 307 307 307 308 307 306 305 303 301 298 296 294 292 291 290 289 288 288 288 289 290 290 291 292 292 291 291 290 289 288 286 285 284 283 283 282 282 281 281 281 281 281 281 281 282 282 282 282 282 282 281 281 281 281 281 281 280 280 280 279 279 278 278
304 305 305 306 306 306 306 306 306 306 306 307 307 307 307 308 308 308 308 308 308 308 308 308 308 308 308 309 308 306 304 301 299 296 294 293 292 292 291 290 290 290 291 291 292 293 293 293 292 291 291 290 288 287 285 284 283 282 281 281 280 280 280 281 281 281 281 281 281 281 281 281 281 281 281 282 282 282 281 281 281 280 280 280 280 279
305 305 306 306 307 307 307 307 307 307 308 308 308 308 308 308 308 308 308 308 308 309 309 309 308 308 309 309 309 308 306 303 300 297 295 293 293 294 293 292 292 292 293 293 294 294 295 294 294 293 292 291 289 288 286 284 283 282 281 280 280 280 280 281 281 281 281 281 281 281 281 281 281 282 282 282 282 282 282 282 282 281 281 281 281 281
305 306 307 307 307 307 307 308 308 308 309 308 308 308 308 308 308 308 308 308 309 309 310 310 309 309 309 309 310 309 307 304 301 298 296 294 295 296 296 295 294 294 295 295 296 296 296 296 295 295 294 293 291 289 287 285 284 283 282 281 281 281 281 281 281 281 281 281 281 281 281 281 281 282 282 282 282 283 283 282 282 283 283 283 283 282
306 307 307 308 308 308 308 308 309 309 309 308 308 309 309 309 309 309 309 309 310 311 311 311 310 310 309 310 311 311 309 305 301 298 297 295 296 298 298 297 296 296 297 297 298 298 298 297 297 296 296 294 293 291 289 287 286 284 283 283 282 282 282 282 282 282 282 282 282 282 282 282 282 282 282 283 283 283 283 283 284 284 284 284 284 284
307 307 308 308 308 308 308 309 309 309 309 309 309 309 309 309 309 309 310 310 311 312 312 311 311 310 310 311 312 314 312 307 302 299 298 297 297 299 300 299 299 298 298 299 300 300 299 298 298 297 297 296 294 292 291 289 287 286 285 284 284 283 283 283 283 283 283 283 283 283 283 283 283 283 283 283 283 283 284 284 285 285 285 286 286 286
307 307 308 308 308 308 309 309 309 309 309 309 309 309 309 309 310 310 310 311 312 312 312 311 311 311 311 312 313 315 314 309 304 302 300 299 299 301 303 302 301 300 300 301 301 301 300 299 298 298 297 297 295 294 292 290 288 287 286 286 285 285 285 284 284 284 284 284 284 283 283 283 283 283 283 283 283 284 284 284 285 285 286 287 287 287
307 307 307 308 308 309 309 310 310 309 309 309 309 310 309 310 310 310 311 311 312 312 311 311 311 312 313 313 314 315 314 311 307 304 303 302 302 304 305 304 303 302 302 302 302 301 300 299 298 298 298 297 296 294 293 291 289 288 287 286 286 286 286 286 285 285 285 285 284 284 284 283 283 283 283 283 283 283 284 284 285 286 286 287 287 288
307 307 307 308 308 309 309 310 310 309 309 309 310 310 310 310 310 310 311 312 312 312 312 312 312 313 314 314 315 316 316 313 310 307 305 304 305 306 307 306 304 303 302 302 302 301 300 299 298 298 298 298 297 295 293 291 290 289 288 287 287 287 287 286 286 286 286 285 285 284 284 283 283 283 282 282 282 283 283 284 284 285 286 287 288 288
307 307 308 308 308 309 309 309 309 309 309 310 310 310 310 310 310 311 312 313 314 314 313 313 314 314 315 316 316 317 316 314 311 308 307 306 306 306 307 306 305 304 303 303 303 301 300 299 299 299 300 300 299 297 295 293 291 290 289 288 288 287 287 287 287 287 286 286 285 285 284 283 282 282 282 281 281 282 282 283 284 285 286 287 287 288
307 307 308 308 308 308 308 309 309 309 309 309 309 310 310 311 312 313 314 315 315 315 314 314 314 315 316 316 316 316 315 313 310 308 307 306 306 306 307 306 306 305 304 304 304 302 301 300 300 301 302 302 301 299 297 294 292 291 290 289 289 288 288 288 288 287 287 286 286 285 284 283 282 281 281 281 281 281 281 282 283 284 285 286 286 287
307 307 308 308 308 308 308 308 308 309 310 310 311 311 312 312 313 314 315 316 315 314 314 313 313 314 314 314 313 313 313 312 310 309 308 307 306 306 307 307 307 306 305 305 304 304 302 301 301 302 303 304 303 301 298 296 294 292 291 290 289 288 288 288 288 288 287 286 285 284 283 282 281 281 280 280 280 280 281 281 282 283 283 284 285 285
307 308 308 308 308 308 308 309 309 310 311 312 312 312 312 313 313 313 314 313 312 311 310 310 310 310 311 310 311 312 312 312 311 310 309 308 307 307 308 308 308 307 305 305 305 304 303 303 303 304 305 306 305 303 301 298 295 293 291 289 289 288 288 288 288 287 287 285 284 283 282 281 280 280 279 279 279 279 280 280 281 281 282 282 283 283
308 308 308 309 309 309 309 310 311 311 312 311 311 311 310 310 310 310 309 308 307 306 306 307 308 309 309 310 311 312 314 314 314 313 311 310 308 308 309 309 308 307 306 306 306 305 305 305 305 306 307 307 307 305 302 299 296 293 290 289 288 288 288 288 288 288 287 286 285 283 282 281 280 279 279 278 279 279 279 279 279 280 280 281 281 281
308 309 309 309 309 309 310 310 310 310 310 310 309 308 308 308 308 308 307 307 306 306 307 308 309 310 311 311 312 314 315 317 316 315 313 311 309 309 310 310 309 309 308 307 307 307 307 307 307 308 308 308 307 305 303 300 297 293 291 290 290 290 290 291 290 290 289 288 287 285 284 282 281 280 280 279 279 278 278 279 279 279 279 279 280 280
308 309 309 309 309 309 309 309 309 308 308 308 307 307 307 307 308 308 308 308 308 308 309 310 311 312 313 313 314 315 317 319 319 317 314 312 310 310 311 311 311 310 310 309 308 307 307 308 308 309 309 309 308 307 305 302 299 296 294 293 293 293 293 293 292 291 290 289 288 286 285 283 282 281 281 280 279 279 279 279 279 279 279 279 279 279
308 309 308 308 308 308 307 307 307 307 307 307 306 306 307 307 307 308 309 309 310 311 312 312 313 314 314 314 315 316 319 321 321 318 316 313 312 312 312 312 312 312 312 310 309 307 307 308 309 310 310 310 309 309 308 306 303 300 298 296 295 295 295 294 293 291 290 289 288 286 285 283 282 282 281 280 280 279 279 279 279 278 278 278 279 279
307 307 307 306 306 305 305 305 306 306 307 307 307 307 307 307 308 309 309 311 311 312 313 313 314 314 315 315 316 317 320 322 322 320 317 315 314 313 313 313 313 313 313 312 310 309 307 307 309 311 311 311 311 310 310 309 307 304 302 299 297 295 295 294 292 291 290 289 287 286 284 283 282 281 281 280 280 279 279 279 278 278 278 278 278 279
305 305 305 304 304 305 305 306 307 307 307 307 307 307 307 308 309 310 311 312 313 313 314 314 315 315 316 317 317 319 322 324 324 321 318 316 314 314 314 313 313 313 314 314 313 311 310 308 309 310 311 311 311 311 311 310 309 307 305 302 299 298 297 295 294 292 291 289 287 286 284 283 282 281 281 280 280 279 279 278 278 278 278 278 278 279
305 305 305 305 306 306 307 308 308 308 308 308 308 309 309 310 311 312 313 314 314 315 315 316 316 317 317 318 319 320 323 325 325 322 319 316 315 314 314 314 314 314 314 314 313 312 311 311 310 310 310 311 311 311 311 311 311 310 308 306 304 302 301 299 297 295 293 290 288 286 285 283 282 281 280 279 279 279 278 278 278 277 277 278 278 279
308 308 308 308 308 309 309 310 309 309 309 310 310 311 312 313 314 315 316 316 316 317 317 317 318 318 319 319 320 322 324 326 325 322 319 316 315 314 314 314 314 314 314 313 312 312 311 311 311 310 310 311 311 312 312 312 312 312 311 309 308 306 305 303 300 298 295 292 289 287 285 283 281 280 279 278 278 278 277 277 277 277 277 278 279 279
311 311 311 310 311 311 311 310 310 311 311 312 313 314 315 316 317 318 318 319 319 319 319 319 319 320 320 321 321 323 325 326 324 322 319 317 315 314 314 314 314 314 313 312 312 311 311 310 311 311 311 310 311 312 313 313 313 313 312 312 311 310 308 306 303 300 296 293 290 288 285 283 280 279 277 277 276 276 276 276 276 276 277 278 279 279
312 312 312 311 311 311 311 311 312 313 315 316 317 317 318 318 319 320 320 320 321 321 321 321 321 321 321 322 322 324 325 325 324 322 319 317 315 314 314 314 314 314 313 312 311 311 310 310 310 310 311 310 311 312 313 314 314 314 314 314 313 312 311 309 305 302 298 295 292 289 287 284 281 279 277 276 275 274 274 274 275 276 276 277 278 279
313 312 311 311 311 311 312 314 315 317 318 318 319 319 320 320 321 321 322 322 322 322 322 322 322 322 323 323 323 324 325 325 323 321 319 317 315 314 314 313 314 313 313 312 311 311 310 310 309 310 310 311 311 312 313 313 314 314 315 315 314 313 311 309 306 302 299 296 293 290 288 285 282 280 277 275 274 273 273 273 274 274 275 276 277 277
312 312 311 311 312 313 315 317 318 319 320 320 320 320 321 322 322 323 323 323 323 322 322 322 323 323 324 324 324 324 324 324 323 321 319 317 315 314 313 313 313 313 313 312 311 311 310 310 310 310 310 311 312 313 313 314 314 315 316 316 315 313 312 309 306 302 299 296 294 291 289 286 284 281 279 277 275 273 273 273 273 273 274 274 275 276
312 311 312 313 314 317 318 320 321 321 321 321 321 322 322 323 323 324 324 324 323 323 322 323 323 324 325 325 325 325 324 324 322 321 319 317 316 314 313 313 313 312 312 312 311 311 311 311 311 311 311 312 312 313 314 315 316 317 317 316 315 314 312 310 306 303 300 297 295 293 291 289 287 285 282 280 278 276 275 275 274 274 275 275 275 275
312 313 314 316 318 319 320 321 321 322 322 323 323 324 324 324 324 325 325 324 324 323 323 323 324 325 326 326 326 325 324 323 322 320 319 317 315 314 313 313 312 312 312 311 311 311 311 311 312 313 313 314 314 314 315 317 319 320 319 317 315 314 313 311 308 306 303 300 298 296 294 292 291 289 287 285 283 282 281 279 278 277 277 276 276 276
314 315 317 319 320 321 321 322 322 323 324 325 325 325 325 325 325 325 325 324 324 324 324 324 325 326 326 327 327 326 325 323 322 320 319 317 315 314 313 313 313 312 312 312 312 312 312 313 313 314 315 315 316 316 318 320 323 323 322 319 318 317 316 314 312 309 306 303 301 299 297 295 293 292 290 289 288 287 286 284 283 281 280 279 278 277
317 319 320 320 321 321 322 323 324 326 327 327 326 326 325 325 325 325 325 325 325 325 325 325 326 326 327 328 329 328 327 325 323 321 319 317 316 314 313 313 313 313 313 313 313 314 314 315 315 316 317 317 318 319 321 324 327 327 325 322 320 319 317 317 315 312 307 304 302 300 299 297 296 294 293 292 291 291 290 289 287 285 283 281 280 279
320 321 321 321 321 322 323 325 327 328 328 327 327 327 326 326 326 326 326 326 327 327 327 328 328 329 330 331 331 331 330 328 327 325 322 320 318 316 315 315 315 315 315 315 316 316 317 317 318 319 320 320 320 321 324 327 330 329 326 323 321 319 317 317 316 313 309 306 304 302 300 299 297 296 295 295 294 293 292 291 289 287 285 283 281 280
321 322 322 322 323 324 326 328 329 329 328 328 328 328 328 328 327 327 328 329 329 330 330 331 331 331 332 334 334 335 334 334 332 330 328 325 322 320 318 317 317 317 317 318 318 319 320 321 321 322 322 323 322 323 325 328 328 328 325 323 320 317 316 317 316 313 309 307 305 303 301 300 298 297 297 296 296 295 293 291 289 288 286 284 282 280
323 323 323 324 326 328 329 330 330 330 329 330 330 330 329 329 328 329 329 331 332 333 333 333 333 334 335 336 337 338 339 339 339 336 333 329 326 323 322 321 320 320 320 320 320 321 323 323 323 324 323 323 323 324 325 326 326 325 323 321 318 316 315 316 315 313 310 307 305 304 302 300 299 298 297 297 296 295 293 291 288 286 284 282 280 278
326 326 327 328 329 331 331 331 331 331 331 331 332 331 330 329 329 330 331 332 333 334 335 335 335 336 338 339 339 340 341 343 343 341 337 333 329 326 325 324 323 323 323 322 322 322 322 323 323 324 323 323 323 323 324 324 323 322 321 319 317 315 314 314 313 312 310 307 306 305 303 301 300 299 298 297 296 295 292 290 287 284 281 278 276 274
329 330 331 332 332 333 333 332 332 332 332 332 332 331 330 330 330 332 333 334 335 335 335 336 337 338 339 340 341 341 341 343 344 343 340 336 333 330 327 326 325 324 324 323 323 323 322 322 322 322 322 322 323 323 324 323 322 321 320 319 317 315 314 313 312 311 309 307 306 306 304 302 301 300 299 298 296 294 291 289 287 284 281 277 274 272
332 333 334 334 334 334 334 333 332 332 331 331 331 330 331 331 332 333 334 334 334 335 335 337 338 340 341 341 341 341 341 341 342 342 340 337 335 333 330 328 327 325 325 324 324 323 323 323 323 323 323 323 324 325 326 325 324 322 322 321 319 317 315 314 313 311 309 308 307 306 306 304 303 302 301 300 298 295 293 291 290 289 287 285 281 278
334 335 336 336 335 335 334 333 331 330 329 329 329 331 332 334 335 335 335 335 334 334 336 338 340 341 342 342 342 341 340 340 340 340 338 337 335 334 332 331 329 328 327 326 325 325 325 325 325 325 326 326 326 327 328 328 327 326 325 323 321 319 317 316 314 313 311 310 309 309 309 308 308 308 307 306 303 301 300 299 300 300 299 297 294 290
335 336 336 336 336 335 333 331 330 329 328 328 330 333 335 337 337 337 336 335 334 335 336 339 340 341 342 342 341 341 340 340 339 339 338 337 336 335 334 333 331 330 329 329 328 328 327 328 329 330 330 331 331 331 331 332 332 330 329 326 324 322 320 318 318 316 315 314 313 313 314 314 315 315 315 313 312 310 309 309 309 309 308 306 303 299
336 337 337 336 336 335 333 331 330 329 330 331 333 336 338 339 339 338 336 335 334 335 337 339 340 341 341 341 341 341 340 340 340 340 339 338 337 336 335 334 333 332 331 331 331 331 331 331 333 335 337 337 335 334 334 334 335 334 332 330 328 326 323 322 321 320 319 318 318 318 318 319 319 319 319 318 317 316 315 315 314 314 313 310 306 302
336 336 336 336 335 335 334 333 332 332 333 334 336 339 341 342 341 339 338 336 336 336 338 339 340 340 340 340 340 341 341 342 342 342 341 340 339 338 337 336 335 334 333 332 332 333 333 334 335 338 341 342 339 337 336 336 336 335 333 332 330 328 326 324 323 322 321 321 321 321 321 321 321 321 321 320 319 319 318 317 316 316 315 312 308 303
Height
3023 3021 3020 3019 3018 3017 3015 3015 3013 3011 3009 3008 3006 3004 3002 3000 2999 2997 2995 2993 2990 2989 2987 2985 2983 2981 2979 2977 2975 2973 2971 2969 2967 2965 2963 2961 2959 2957 2955 2953 2951 2950 2948 2946 2945 2944 2943 2942 2941 2940 2939 2938 2937 2935 2935 2934 2933 2932 2931 2930 2929 2928 2928 2927 2927 2926 2926 2925 2925 2925 2925 2925 2924 2924 2924 2924 2924 2924 2925 2925 2925 2925 2925 2926 2926 2926
3019 3018 3016 3015 3014 3013 3011 3010 3009 3007 3005 3003 3001 3000 2998 2996 2995 2993 2991 2989 2986 2984 2982 2980 2979 2977 2975 2973 2971 2969 2966 2965 2963 2960 2959 2957 2955 2953 2951 2949 2947 2945 2944 2943 2941 2940 2939 2938 2937 2936 2935 2934 2933 2932 2931 2930 2929 2928 2927 2926 2926 2925 2924 2924 2923 2923 2922 2922 2922 2922 2921 2921 2921 2921 2921 2921 2921 2921 2921 2921 2921 2922 2922 2922 2922 2922
3016 3014 3013 3011 3010 3009 3007 3006 3004 3002 3000 2998 2997 2995 2994 2992 2990 2988 2986 2984 2982 2980 2978 2976 2974 2972 2970 2969 2967 2965 2962 2960 2958 2956 2955 2953 2950 2949 2947 2945 2943 2942 2940 2939 2938 2937 2936 2935 2934 2933 2932 2931 2930 2929 2928 2927 2926 2925 2924 2923 2922 2922 2921 2920 2920 2920 2919 2919 2919 2918 2918 2918 2918 2918 2918 2918 2918 2918 2918 2918 2918 2918 2918 2918 2918 2919
3012 3010 3009 3008 3006 3005 3003 3002 3000 2998 2996 2994 2992 2990 2989 2987 2985 2983 2981 2980 2978 2976 2974 2972 2970 2968 2966 2964 2962 2960 2959 2956 2955 2953 2951 2949 2947 2945 2943 2941 2940 2939 2937 2936 2935 2934 2933 2932 2930 2930 2929 2928 2926 2925 2925 2924 2923 2922 2921 2920 2919 2919 2918 2917 2917 2916 2916 2916 2915 2915 2915 2915 2915 2915 2915 2915 2915 2914 2914 2914 2914 2914 2915 2915 2915 2915
3009 3007 3005 3004 3002 3001 2999 2998 2995 2993 2991 2990 2988 2986 2984 2982 2980 2979 2977 2975 2973 2971 2970 2968 2966 2964 2962 2960 2958 2956 2955 2953 2951 2949 2947 2945 2943 2942 2940 2938 2937 2935 2934 2933 2932 2931 2930 2928 2927 2926 2925 2924 2923 2922 2921 2920 2920 2919 2918 2917 2916 2915 2915 2914 2914 2913 2913 2912 2912 2911 2911 2911 2911 2911 2911 2911 2911 2911 2911 2911 2911 2911 2911 2911 2911 2911
3005 3003 3001 3000 2998 2997 2995 2993 2991 2989 2987 2985 2984 2982 2980 2978 2976 2974 2972 2970 2969 2967 2965 2964 2962 2960 2958 2956 2954 2953 2951 2949 2947 2945 2944 2942 2940 2939 2937 2935 2934 2933 2931 2930 2929 2928 2927 2925 2925 2923 2922 2921 2920 2919 2918 2917 2916 2915 2915 2914 2913 2912 2912 2911 2910 2910 2910 2909 2909 2908 2908 2908 2908 2908 2908 2907 2907 2907 2907 2907 2907 2907 2907 2907 2908 2908
3002 3000 2998 2996 2994 2993 2991 2990 2987 2985 2983 2981 2980 2978 2976 2974 2972 2970 2968 2966 2965 2963 2961 2959 2957 2956 2954 2952 2950 2949 2947 2945 2944 2942 2941 2939 2937 2936 2934 2933 2931 2930 2929 2928 2926 2925 2924 2923 2922 2921 2920 2919 2917 2916 2915 2914 2913 2912 2911 2911 2910 2909 2909 2908 2907 2907 2906 2906 2905 2905 2905 2905 2904 2904 2904 2904 2904 2904 2903 2903 2904 2904 2904 2904 2904 2904
2998 2996 2995 2993 2991 2989 2987 2986 2984 2981 2979 2977 2975 2973 2971 2970 2968 2966 2964 2962 2960 2959 2957 2955 2953 2952 2951 2949 2947 2945 2943 2942 2941 2939 2938 2936 2935 2933 2932 2930 2929 2928 2927 2925 2924 2923 2922 2920 2919 2918 2917 2916 2915 2914 2912 2911 2910 2910 2909 2908 2907 2906 2905 2905 2904 2904 2903 2902 2902 2902 2901 2901 2901 2901 2900 2900 2900 2900 2900 2900 2900 2900 2900 2900 2900 2900
2995 2993 2991 2989 2988 2986 2984 2981 2980 2978 2975 2973 2970 2969 2967 2965 2963 2962 2960 2959 2956 2954 2953 2951 2950 2948 2947 2946 2944 2942 2940 2939 2937 2936 2935 2933 2932 2930 2929 2928 2927 2925 2924 2923 2922 2921 2919 2918 2917 2915 2914 2913 2912 2911 2910 2909 2908 2907 2906 2905 2904 2903 2902 2902 2901 2900 2900 2899 2899 2898 2898 2898 2898 2897 2897 2897 2896 2896 2896 2896 2896 2896 2896 2896 2896 2897
2991 2989 2987 2985 2983 2982 2980 2978 2975 2974 2972 2969 2967 2964 2962 2960 2958 2957 2955 2955 2953 2951 2949 2947 2946 2945 2944 2942 2941 2940 2938 2936 2934 2933 2932 2931 2929 2928 2926 2925 2924 2923 2922 2921 2920 2919 2917 2916 2914 2913 2912 2910 2910 2908 2907 2906 2905 2904 2903 2902 2901 2900 2900 2899 2898 2897 2897 2896 2896 2895 2895 2895 2895 2894 2894 2893 2893 2893 2893 2892 2892 2892 2892 2892 2893 2893
2987 2985 2984 2982 2980 2978 2976 2974 2972 2970 2968 2966 2963 2960 2958 2956 2954 2952 2950 2950 2949 2947 2945 2944 2943 2942 2940 2939 2937 2936 2935 2934 2932 2930 2930 2928 2927 2925 2924 2923 2922 2921 2920 2919 2918 2916 2915 2914 2912 2911 2910 2908 2907 2905 2905 2903 2902 2901 2900 2899 2898 2897 2896 2896 2895 2894 2894 2893 2893 2892 2892 2892 2891 2891 2890 2890 2890 2889 2889 2889 2889 2888 2888 2888 2889 2889
2983 2981 2980 2978 2976 2974 2972 2970 2968 2965 2964 2962 2959 2957 2954 2952 2950 2948 2946 2945 2944 2943 2942 2940 2940 2939 2938 2936 2934 2933 2931 2930 2929 2928 2927 2925 2924 2923 2922 2920 2920 2919 2918 2917 2915 2914 2913 2911 2910 2908 2907 2906 2904 2903 2902 2900 2900 2899 2897 2896 2895 2895 2894 2893 2892 2891 2891 2890 2890 2889 2889 2888 2888 2887 2887 2886 2886 2886 2885 2885 2885 2885 2885 2884 2885 2885
2980 2978 2976 2974 2972 2970 2968 2966 2964 2961 2960 2957 2955 2953 2950 2948 2946 2945 2943 2941 2940 2940 2939 2937 2936 2935 2935 2934 2932 2930 2928 2927 2926 2925 2924 2922 2921 2920 2919 2918 2917 2916 2915 2914 2913 2912 2910 2909 2907 2906 2905 2903 2902 2900 2899 2898 2897 2896 2895 2894 2893 2892 2891 2890 2889 2889 2888 2887 2887 2886 2886 2885 2885 2884 2884 2883 2883 2882 2882 2881 2881 2881 2881 2881 2880 2881
2975 2974 2972 2970 2968 2966 2964 2962 2960 2958 2955 2953 2951 2949 2947 2945 2943 2942 2940 2938 2937 2936 2936 2935 2933 2932 2931 2930 2929 2927 2925 2924 2923 2922 2921 2919 2918 2917 2916 2915 2914 2913 2913 2912 2910 2909 2908 2906 2905 2903 2902 2900 2899 2898 2896 2895 2894 2893 2892 2891 2890 2889 2888 2887 2886 2886 2885 2884 2884 2883 2883 2882 2881 2881 2880 2880 2879 2879 2878 2878 2877 2877 2877 2877 2877 2877
2972 2970 2968 2966 2965 2963 2960 2958 2956 2954 2951 2950 2948 2945 2944 2942 2940 2939 2938 2936 2934 2933 2932 2931 2930 2929 2929 2928 2926 2925 2922 2920 2919 2918 2917 2916 2915 2915 2914 2912 2910 2910 2910 2909 2907 2906 2905 2903 2901 2900 2899 2898 2896 2895 2894 2892 2891 2890 2889 2888 2887 2886 2885 2884 2883 2883 2882 2881 2880 2880 2879 2879 2878 2877 2877 2876 2876 2875 2875 2874 2874 2874 2874 2873 2873 2873
2968 2966 2965 2963 2961 2959 2956 2955 2952 2950 2948 2946 2944 2943 2941 2939 2937 2935 2935 2933 2931 2930 2929 2928 2927 2925 2925 2925 2924 2923 2920 2917 2915 2914 2914 2913 2912 2911 2911 2909 2907 2907 2907 2906 2905 2903 2901 2900 2899 2897 2896 2895 2894 2893 2891 2890 2889 2888 2886 2885 2884 2883 2882 2881 2880 2880 2879 2878 2877 2877 2876 2875 2875 2874 2874 2873 2872 2872 2871 2871 2870 2870 2870 2870 2870 2869
2965 2963 2960 2959 2957 2955 2953 2951 2949 2947 2945 2943 2941 2940 2938 2937 2935 2933 2931 2930 2929 2928 2926 2925 2924 2922 2921 2921 2920 2920 2919 2915 2912 2910 2910 2910 2909 2909 2908 2906 2904 2903 2903 2902 2901 2900 2898 2896 2895 2894 2893 2892 2891 2890 2889 2887 2886 2885 2884 2882 2881 2880 2879 2878 2877 2876 2876 2875 2874 2873 2873 2872 2871 2871 2870 2870 2869 2868 2868 2867 2867 2866 2866 2866 2866 2866
2961 2960 2957 2955 2953 2951 2950 2948 2946 2944 2942 2940 2939 2937 2935 2934 2932 2931 2929 2928 2926 2925 2923 2922 2921 2920 2919 2917 2917 2916 2915 2913 2910 2907 2907 2906 2906 2906 2905 2903 2901 2900 2899 2899 2898 2896 2895 2893 2892 2891 2890 2889 2888 2887 2886 2885 2883 2882 2881 2880 2878 2877 2876 2875 2874 2874 2873 2872 2871 2870 2869 2869 2868 2867 2867 2866 2865 2865 2864 2864 2863 2863 2862 2862 2862 2862
2958 2956 2955 2952 2950 2948 2947 2945 2944 2941 2939 2937 2936 2935 2933 2931 2930 2928 2927 2925 2924 2923 2921 2920 2918 2917 2916 2915 2914 2913 2912 2910 2907 2905 2903 2903 2902 2902 2902 2900 2898 2896 2896 2895 2894 2893 2891 2890 2889 2888 2887 2886 2885 2884 2883 2882 2880 2879 2878 2877 2875 2874 2873 2872 2871 2870 2870 2869 2868 2867 2866 2865 2865 2864 2863 2863 2862 2861 2860 2860 2860 2859 2859 2859 2859 2859
2955 2953 2952 2950 2947 2945 2944 2942 2941 2939 2937 2935 2933 2932 2930 2929 2927 2926 2925 2923 2922 2920 2919 2917 2916 2915 2914 2913 2912 2911 2910 2907 2905 2902 2900 2899 2899 2899 2898 2896 2894 2892 2892 2891 2891 2889 2888 2886 2886 2885 2885 2884 2883 2882 2880 2879 2878 2876 2875 2874 2873 2871 2870 2869 2868 2867 2866 2865 2865 2864 2863 2862 2861 2861 2860 2859 2859 2858 2857 2857 2856 2855 2855 2855 2855 2855
2952 2950 2949 2947 2945 2943 2941 2940 2938 2937 2935 2933 2931 2929 2928 2926 2925 2923 2922 2921 2919 2917 2916 2915 2913 2912 2911 2910 2909 2908 2907 2905 2902 2899 2897 2895 2895 2895 2895 2892 2890 2889 2888 2888 2887 2886 2885 2883 2883 2882 2882 2881 2880 2879 2878 2876 2875 2874 2873 2871 2870 2869 2868 2866 2865 2864 2863 2862 2861 2860 2860 2859 2858 2857 2857 2856 2855 2855 2854 2853 2853 2852 2852 2852 2852 2852
2950 2948 2946 2944 2943 2941 2939 2938 2936 2935 2933 2931 2929 2927 2925 2924 2922 2920 2919 2918 2917 2915 2913 2912 2910 2910 2909 2908 2907 2906 2905 2903 2900 2896 2894 2892 2891 2892 2891 2889 2887 2885 2884 2884 2883 2882 2881 2880 2880 2879 2879 2879 2877 2876 2875 2874 2872 2871 2870 2869 2867 2866 2865 2864 2862 2861 2860 2859 2858 2857 2856 2855 2855 2854 2853 2852 2852 2851 2850 2850 2849 2849 2848 2848 2848 2848
2947 2945 2944 2942 2940 2939 2937 2936 2934 2933 2931 2930 2928 2925 2924 2922 2920 2918 2917 2915 2914 2912 2910 2909 2908 2907 2906 2905 2905 2904 2903 2900 2898 2895 2892 2890 2888 2888 2888 2886 2884 2882 2881 2880 2880 2878 2877 2877 2876 2876 2876 2876 2875 2874 2872 2871 2870 2869 2867 2866 2865 2864 2863 2861 2860 2859 2857 2856 2855 2854 2853 2852 2851 2850 2850 2849 2848 2847 2847 2846 2846 2845 2845 2845 2845 2844
2945 2943 2941 2940 2938 2937 2935 2934 2932 2930 2929 2927 2925 2923 2921 2920 2918 2916 2915 2913 2911 2910 2908 2906 2905 2905 2904 2904 2903 2902 2901 2899 2896 2893 2890 2888 2886 2885 2885 2883 2881 2879 2877 2877 2876 2875 2874 2873 2873 2873 2873 2873 2872 2871 2870 2869 2867 2866 2865 2864 2863 2861 2860 2859 2858 2856 2855 2854 2852 2851 2850 2849 2848 2847 2846 2845 2845 2844 2844 2843 2842 2842 2842 2841 2841 2841
2942 2941 2939 2937 2936 2935 2933 2931 2930 2928 2927 2925 2924 2922 2920 2918 2916 2915 2914 2913 2911 2909 2907 2905 2904 2903 2902 2901 2900 2900 2899 2897 2895 2892 2889 2885 2883 2882 2882 2880 2878 2875 2874 2874 2873 2872 2870 2870 2870 2870 2870 2870 2869 2868 2867 2866 2865 2864 2863 2862 2860 2859 2858 2856 2855 2854 2852 2851 2850 2848 2847 2846 2845 2844 2843 2842 2841 2840 2840 2840 2839 2839 2838 2838 2837 2837
2940 2938 2937 2935 2934 2932 2931 2929 2928 2926 2925 2923 2921 2920 2918 2917 2915 2915 2914 2913 2910 2908 2906 2905 2903 2902 2901 2899 2898 2897 2897 2895 2893 2890 2887 2884 2881 2880 2880 2878 2876 2873 2871 2870 2870 2869 2867 2866 2866 2867 2867 2866 2866 2865 2865 2864 2863 2862 2860 2859 2858 2857 2855 2854 2853 2851 2850 2848 2847 2845 2844 2843 2842 2840 2840 2839 2838 2837 2837 2836 2836 2835 2835 2835 2834 2834
2937 2936 2935 2933 2931 2930 2929 2927 2926 2925 2923 2921 2920 2918 2916 2915 2914 2912 2911 2910 2909 2906 2905 2903 2901 2899 2898 2897 2895 2895 2894 2893 2891 2888 2885 2882 2879 2877 2877 2875 2873 2871 2869 2867 2867 2866 2865 2863 2863 2863 2863 2863 2863 2862 2862 2861 2860 2859 2858 2857 2855 2854 2853 2851 2850 2848 2847 2845 2844 2842 2841 2840 2838 2837 2836 2835 2835 2834 2833 2833 2832 2832 2831 2831 2830 2830
2935 2934 2932 2931 2930 2928 2927 2925 2924 2923 2922 2920 2919 2917 2915 2913 2911 2910 2909 2907 2906 2904 2902 2900 2898 2896 2895 2894 2893 2892 2892 2890 2889 2886 2883 2880 2877 2875 2874 2873 2870 2868 2866 2864 2863 2863 2862 2861 2860 2860 2860 2860 2860 2859 2859 2858 2857 2856 2855 2854 2853 2851 2850 2848 2847 2845 2844 2842 2840 2839 2838 2836 2835 2834 2833 2832 2831 2830 2830 2830 2829 2828 2828 2827 2826 2826
2933 2932 2930 2929 2928 2926 2925 2924 2923 2921 2920 2919 2917 2915 2913 2912 2910 2908 2906 2905 2903 2901 2900 2898 2896 2894 2892 2891 2890 2889 2889 2888 2886 2883 2880 2877 2875 2873 2872 2870 2868 2866 2864 2861 2860 2859 2859 2859 2858 2857 2856 2856 2856 2855 2855 2855 2854 2853 2852 2851 2850 2849 2847 2846 2844 2842 2840 2839 2838 2836 2835 2833 2832 2831 2830 2829 2828 2827 2827 2826 2825 2825 2824 2823 2823 2822
2932 2930 2929 2928 2927 2925 2924 2922 2921 2920 2919 2917 2915 2914 2912 2910 2908 2906 2905 2903 2901 2899 2897 2896 2894 2892 2890 2888 2887 2886 2886 2886 2884 2881 2877 2875 2872 2870 2869 2867 2865 2864 2862 2859 2856 2855 2855 2855 2855 2854 2853 2853 2852 2852 2852 2851 2850 2850 2849 2848 2847 2846 2845 2843 2841 2839 2838 2836 2835 2833 2832 2830 2829 2828 2827 2826 2825 2825 2824 2823 2823 2821 2820 2820 2819 2819
2930 2929 2928 2926 2925 2924 2922 2921 2920 2918 2917 2915 2914 2912 2910 2909 2907 2905 2903 2901 2900 2898 2896 2894 2892 2891 2889 2887 2885 2883 2883 2883 2882 2879 2875 2872 2870 2868 2867 2865 2863 2861 2860 2858 2854 2851 2849 2850 2851 2851 2850 2849 2849 2849 2848 2848 2847 2846 2845 2844 2843 2842 2841 2840 2838 2836 2835 2833 2832 2830 2829 2828 2826 2825 2824 2823 2822 2822 2821 2820 2820 2819 2817 2816 2816 2816
2929 2927 2926 2925 2923 2922 2920 2919 2918 2916 2915 2914 2912 2910 2909 2907 2905 2903 2901 2900 2898 2896 2894 2892 2890 2889 2887 2885 2884 2882 2881 2880 2879 2877 2874 2870 2867 2865 2865 2862 2860 2859 2858 2856 2854 2850 2847 2845 2846 2847 2847 2846 2845 2845 2845 2844 2844 2843 2841 2840 2840 2839 2838 2836 2835 2833 2831 2830 2829 2827 2826 2825 2824 2823 2821 2820 2820 2819 2818 2818 2817 2815 2815 2814 2813 2813
2926 2925 2924 2922 2921 2920 2919 2917 2916 2915 2913 2912 2910 2909 2907 2905 2903 2902 2900 2898 2896 2894 2892 2890 2889 2887 2885 2884 2882 2881 2880 2879 2877 2875 2872 2869 2865 2863 2862 2860 2858 2856 2855 2854 2852 2850 2846 2844 2842 2842 2842 2842 2842 2841 2841 2840 2840 2839 2838 2837 2836 2835 2834 2833 2831 2830 2828 2827 2825 2824 2823 2822 2821 2820 2819 2818 2817 2816 2815 2815 2814 2813 2812 2811 2810 2810
2924 2923 2922 2920 2919 2918 2917 2916 2914 2913 2911 2910 2908 2907 2905 2903 2902 2900 2898 2896 2895 2893 2891 2889 2887 2885 2884 2882 2880 2879 2878 2877 2875 2873 2870 2867 2864 2861 2859 2858 2856 2855 2852 2851 2849 2847 2845 2843 2840 2839 2838 2838 2838 2838 2838 2837 2836 2835 2835 2834 2832 2831 2830 2829 2828 2826 2825 2823 2822 2821 2820 2819 2818 2817 2816 2815 2815 2814 2813 2812 2811 2810 2810 2808 2807 2807
2922 2921 2920 2919 2917 2916 2915 2914 2913 2911 2910 2908 2906 2905 2903 2901 2900 2898 2897 2895 2893 2891 2890 2888 2886 2884 2882 2880 2878 2877 2876 2875 2874 2871 2868 2865 2862 2859 2857 2855 2854 2853 2850 2848 2846 2845 2842 2840 2839 2837 2835 2834 2834 2834 2835 2834 2833 2832 2831 2830 2829 2828 2827 2825 2824 2822 2821 2820 2819 2818 2817 2816 2815 2815 2814 2813 2812 2811 2810 2810 2809 2808 2807 2806 2805 2804
2920 2919 2918 2917 2916 2915 2914 2912 2911 2909 2907 2906 2904 2903 2901 2900 2898 2897 2895 2894 2892 2890 2888 2887 2885 2883 2881 2880 2877 2875 2874 2873 2872 2870 2867 2864 2861 2858 2855 2853 2852 2850 2848 2846 2844 2842 2840 2838 2836 2835 2834 2831 2830 2830 2830 2830 2830 2829 2828 2827 2826 2825 2823 2822 2820 2819 2817 2816 2815 2815 2814 2813 2812 2811 2811 2810 2810 2809 2808 2807 2806 2806 2805 2804 2803 2802
2919 2918 2916 2915 2914 2913 2912 2910 2909 2907 2906 2904 2903 2901 2900 2898 2897 2895 2894 2892 2890 2889 2887 2886 2884 2883 2881 2879 2877 2875 2872 2871 2869 2867 2865 2862 2859 2856 2853 2851 2850 2849 2847 2844 2842 2840 2838 2835 2834 2832 2831 2830 2828 2827 2826 2826 2826 2825 2825 2824 2823 2821 2820 2819 2817 2816 2814 2813 2812 2812 2811 2810 2810 2809 2808 2807 2807 2806 2805 2805 2804 2803 2802 2801 2801 2800
2917 2916 2915 2914 2912 2911 2910 2908 2907 2905 2904 2903 2901 2900 2898 2897 2895 2894 2892 2891 2890 2888 2886 2885 2883 2882 2880 2878 2876 2874 2871 2869 2867 2865 2863 2860 2858 2855 2852 2849 2847 2846 2845 2843 2840 2838 2836 2834 2831 2830 2828 2827 2826 2825 2824 2823 2822 2821 2821 2820 2819 2818 2817 2816 2815 2813 2812 2810 2810 2809 2808 2807 2806 2805 2805 2804 2804 2803 2802 2802 2801 2801 2800 2799 2798 2798
2916 2915 2913 2912 2911 2909 2908 2907 2905 2904 2902 2901 2900 2898 2897 2895 2894 2893 2891 2890 2888 2887 2885 2884 2882 2880 2879 2877 2875 2873 2870 2868 2865 2863 2861 2858 2856 2853 2850 2847 2845 2844 2843 2841 2839 2837 2835 2832 2830 2828 2826 2824 2823 2822 2821 2821 2820 2818 2817 2816 2815 2815 2815 2814 2812 2811 2810 2808 2807 2806 2805 2805 2804 2803 2802 2801 2800 2800 2800 2799 2799 2798 2798 2797 2796 2795
2915 2913 2912 2910 2909 2908 2906 2905 2904 2902 2901 2899 2898 2896 2895 2894 2893 2892 2890 2889 2887 2886 2884 2882 2881 2879 2878 2876 2874 2871 2869 2866 2864 2861 2859 2856 2854 2851 2849 2846 2844 2842 2840 2839 2837 2835 2833 2831 2829 2827 2825 2822 2820 2819 2818 2818 2817 2816 2814 2812 2811 2811 2812 2811 2810 2809 2807 2806 2805 2803 2802 2801 2800 2800 2799 2798 2798 2797 2797 2796 2796 2795 2795 2794 2793 2793
2913 2912 2910 2909 2908 2906 2905 2904 2902 2900 2899 2898 2896 2895 2894 2893 2892 2891 2890 2888 2887 2885 2883 2881 2879 2878 2876 2874 2872 2870 2867 2865 2862 2860 2857 2855 2852 2850 2847 2845 2842 2840 2838 2836 2835 2834 2832 2830 2827 2825 2823 2821 2819 2817 2816 2816 2815 2814 2812 2810 2808 2808 2808 2808 2808 2806 2805 2804 2802 2801 2800 2799 2798 2797 2796 2795 2795 2795 2794 2793 2793 2793 2792 2791 2791 2790
2911 2910 2909 2908 2907 2905 2904 2902 2901 2899 2898 2896 2895 2894 2893 2891 2890 2889 2888 2886 2885 2883 2881 2879 2877 2875 2874 2872 2870 2868 2866 2863 2860 2858 2855 2853 2850 2848 2845 2843 2841 2839 2837 2835 2833 2831 2830 2828 2826 2824 2822 2820 2818 2815 2814 2814 2813 2812 2811 2809 2806 2805 2805 2805 2805 2804 2802 2801 2800 2799 2797 2796 2795 2794 2793 2793 2792 2792 2791 2791 2790 2790 2789 2789 2788 2788
2910 2909 2908 2907 2905 2904 2903 2901 2900 2898 2897 2896 2894 2893 2891 2890 2889 2887 2886 2884 2883 2881 2879 2877 2875 2872 2870 2869 2868 2866 2864 2862 2859 2856 2853 2851 2849 2846 2844 2842 2840 2838 2836 2833 2831 2830 2828 2827 2825 2823 2820 2819 2816 2814 2812 2811 2811 2810 2809 2808 2805 2803 2801 2801 2801 2801 2800 2798 2797 2796 2795 2793 2792 2791 2790 2790 2790 2789 2789 2788 2788 2787 2787 2786 2785 2785
2909 2908 2907 2905 2904 2903 2901 2900 2899 2897 2896 2895 2894 2892 2890 2889 2887 2886 2884 2882 2881 2879 2877 2875 2872 2870 2868 2866 2865 2863 2861 2860 2858 2855 2852 2850 2847 2845 2843 2841 2839 2837 2835 2833 2830 2828 2826 2825 2823 2822 2820 2818 2815 2813 2811 2810 2809 2808 2807 2806 2804 2802 2800 2799 2798 2797 2796 2795 2795 2794 2793 2791 2790 2789 2788 2788 2787 2787 2786 2786 2785 2785 2785 2784 2783 2783
2908 2907 2905 2904 2903 2901 2900 2899 2898 2897 2895 2894 2893 2891 2890 2888 2886 2885 2883 2880 2879 2877 2875 2872 2870 2868 2866 2864 2862 2860 2859 2857 2856 2854 2852 2849 2847 2845 2842 2840 2838 2836 2834 2832 2830 2828 2825 2824 2822 2820 2819 2817 2815 2813 2811 2809 2807 2806 2805 2804 2803 2801 2799 2798 2796 2795 2794 2793 2792 2791 2790 2789 2788 2786 2785 2785 2785 2785 2784 2783 2783 2783 2782 2782 2781 2781
2907 2905 2904 2903 2902 2900 2899 2898 2897 2896 2895 2893 2892 2890 2889 2887 2885 2883 2881 2879 2877 2875 2873 2871 2869 2866 2864 2862 2860 2858 2856 2855 2854 2852 2851 2849 2846 2844 2842 2840 2838 2835 2833 2831 2830 2827 2825 2823 2821 2819 2817 2815 2814 2813 2811 2809 2806 2804 2803 2802 2801 2799 2798 2797 2795 2794 2792 2790 2790 2789 2788 2787 2785 2784 2783 2783 2782 2782 2782 2781 2781 2780 2780 2780 2779 2779
2905 2904 2903 2902 2901 2900 2898 2897 2896 2895 2894 2892 2891 2890 2888 2886 2884 2882 2880 2878 2876 2874 2872 2870 2868 2865 2863 2861 2859 2856 2855 2853 2852 2850 2849 2847 2845 2844 2841 2839 2837 2835 2833 2830 2828 2826 2825 2822 2820 2818 2816 2814 2812 2811 2810 2808 2806 2804 2801 2800 2799 2797 2796 2795 2794 2792 2790 2789 2788 2786 2785 2785 2783 2782 2781 2780 2780 2779 2779 2779 2778 2778 2777 2777 2776 2776
2905 2903 2902 2901 2900 2899 2897 2896 2895 2894 2893 2891 2890 2889 2887 2885 2882 2880 2879 2877 2875 2872 2870 2868 2866 2864 2862 2860 2858 2856 2854 2852 2850 2848 2847 2845 2844 2842 2840 2838 2836 2834 2832 2830 2827 2825 2823 2821 2820 2818 2816 2813 2811 2809 2807 2807 2805 2803 2800 2798 2797 2795 2793 2792 2791 2790 2789 2787 2785 2784 2783 2782 2780 2779 2778 2777 2777 2776 2776 2776 2775 2775 2775 2774 2773 2773
2903 2902 2901 2900 2899 2898 2897 2895 2894 2893 2892 2890 2889 2887 2885 2884 2882 2880 2877 2875 2873 2871 2869 2867 2865 2863 2861 2859 2857 2855 2853 2851 2849 2847 2845 2843 2841 2840 2838 2836 2834 2832 2830 2828 2826 2824 2822 2820 2818 2817 2815 2812 2809 2807 2805 2804 2803 2801 2799 2797 2795 2793 2791 2789 2788 2787 2786 2784 2783 2782 2780 2779 2778 2777 2775 2774 2773 2773 2773 2772 2772 2772 2771 2771 2770 2770
2902 2901 2900 2899 2898 2897 2896 2895 2893 2892 2890 2889 2887 2886 2884 2882 2881 2879 2877 2875 2872 2870 2868 2865 2864 2861 2860 2858 2856 2854 2852 2850 2848 2846 2844 2842 2840 2838 2836 2834 2831 2829 2827 2825 2824 2821 2820 2818 2816 2815 2814 2811 2808 2805 2802 2800 2799 2797 2796 2794 2792 2790 2788 2786 2785 2784 2783 2781 2780 2778 2777 2776 2775 2774 2773 2771 2770 2769 2769 2769 2769 2769 2768 2768 2767 2766
2901 2900 2899 2898 2897 2896 2895 2893 2892 2891 2889 2888 2886 2885 2883 2881 2880 2878 2876 2874 2871 2869 2867 2865 2863 2860 2859 2856 2855 2853 2851 2849 2847 2845 2843 2841 2839 2836 2834 2832 2830 2827 2825 2822 2820 2819 2817 2815 2813 2812 2812 2810 2807 2804 2800 2798 2795 2794 2792 2791 2789 2788 2785 2783 2782 2780 2779 2778 2776 2775 2774 2773 2772 2771 2770 2769 2767 2766 2766 2765 2765 2765 2765 2765 2764 2763